sat.trackr.live / text

‹ back to catalog

STARLINK-33701

NORAD 63464 · 2025-070E

PAYLOAD ACTIVE UNKNOWN

§ Identity

Operator
Country
US
Launch date
2025-04-06
Launch site
AFETR
Launch vehicle
Mass (kg)
RCS (m²)

Purposes: comms

External: N2YO · Heavens-Above · Gunter

§ Orbital elements

Epoch: 2026-05-25T03:17:25.414944Z

Period
94.27 min
Inclination
42.9997°
Eccentricity
0.0000727
Mean motion
15.27584613 rev/d
Perigee alt
482.5 km
Apogee alt
483.5 km
Semi-major
6,861.2 km
B*
4.9846e-4
RAAN
188.4489°
Arg perigee
266.3785°
Mean anomaly
93.6983°
Rev number
6,466

§ Raw data

STARLINK-337011 63464U 25070E   26145.13709971  .00013481  00000+0  49846-3 0  99922 63464  42.9997 188.4489 0000727 266.3785  93.6983 15.27584613 64662

JSON: /api/v1/satellites/63464 · /tle

For live sub-satellite position, see the globe view (requires WebGL).

§ Visibility from observer

Set your observer location to see the next 7 days of passes ≥ 10°. The values pass through the URL so the page stays shareable.

No JS? Fill the form by hand. The geolocation button needs JavaScript.